Weather History for Seattle, WA

Change the Weather History Date:

Tuesday, January 7, 2014

  Actual Average Record
Temperature  
Mean Temperature 44 °F 41 °F  
Max Temperature 47 °F 46 °F 59 °F (2002)
Min Temperature 41 °F 37 °F 19 °F (1973)
Degree Days  
Heating Degree Days 21 24  
Month to date heating degree days 161 168  
Since 1 July heating degree days 1961 2106  
Cooling Degree Days 0 0  
Month to date cooling degree days 0 0  
Year to date cooling degree days 0 0  
Moisture  
Dew Point 41 °F    
Average Humidity 87    
Maximum Humidity 92    
Minimum Humidity 82    
Precipitation  
Precipitation 0.48 in 0.19 in 2.29 in (2009)
Month to date precipitation 0.71 1.30  
Year to date precipitation 0.71 1.30  
Snow  
Snow 0.00 in - 2.70 in (1980)
Month to date snowfall 0.0  
Since 1 July snowfall 1.1  
Snow Depth 0.00 in    
Sea Level Pressure  
Sea Level Pressure 30.06 in    
Wind  
Wind Speed 4 mph (SSE)    
Max Wind Speed 10 mph    
Max Gust Speed 12 mph    
Visibility 3 miles    
Events Fog , Rain    
T = Trace of Precipitation, MM = Missing Value Source: NWS Daily Summary

Daily Weather History Graph

Daily Weather History Graph

Search for Another Location

Airport:

Trip Planner

Search our weather history database for the weather conditions in past years. The results will help you decide how hot, cold, wet, or windy it might be!

Date:

Astronomy

Jan. 07, 2014 Rise Set
Actual Time 7:55 AM PST 4:35 PM PST
Civil Twilight 7:20 AM PST 5:10 PM PST
Nautical Twilight 6:41 AM PST 5:49 PM PST
Astronomical Twilight 6:04 AM PST 6:26 PM PST
Moon 11:15 AM PST (1/7) No Moon Set
Length of Visible Light 9h 50m
Length of Day
8h 39m
Waxing Crescent, 46% of the Moon is Illuminated
Jan 7
Waxing Crescent
Jan 7
First Quarter
Jan 15
Full
Jan 23
Last Quarter
Jan 30
New

Hourly Weather History & Observations

Time (PST) Temp. Windchill Dew Point Humidity Pressure Visibility Wind Dir Wind Speed Gust Speed Precip Events Conditions
12:53 AM 41.0 °F - 37.0 °F 86% 30.16 in 5.0 mi Calm Calm - 0.08 in Rain Light Rain
1:06 AM 41.0 °F 36.4 °F 37.4 °F 87% 30.12 in 6.0 mi SE 6.9 mph - 0.01 in Rain Light Rain
1:46 AM 42.8 °F 39.3 °F 37.4 °F 81% 30.12 in 5.0 mi South 5.8 mph - 0.06 in Rain Rain
1:53 AM 42.1 °F 37.7 °F 37.9 °F 85% 30.15 in 5.0 mi SSE 6.9 mph - 0.06 in Rain Light Rain
2:53 AM 42.1 °F 37.7 °F 39.0 °F 89% 30.15 in 6.0 mi SSE 6.9 mph - 0.06 in Rain Light Rain
3:35 AM 42.8 °F - 39.2 °F 87% 30.11 in 6.0 mi Calm Calm - 0.01 in Rain Light Rain
3:53 AM 42.1 °F - 37.9 °F 85% 30.13 in 7.0 mi Calm Calm - 0.01 in   Overcast
4:32 AM 42.8 °F - 39.2 °F 87% 30.09 in 6.0 mi Calm Calm - N/A   Overcast
4:53 AM 42.1 °F - 37.9 °F 85% 30.11 in 6.0 mi Calm Calm - N/A   Overcast
5:34 AM 42.8 °F - 39.2 °F 87% 30.07 in 3.0 mi Calm Calm - N/A   Overcast
5:53 AM 42.1 °F - 39.0 °F 89% 30.09 in 3.0 mi Calm Calm - N/A   Overcast
6:02 AM 42.8 °F - 39.2 °F 87% 30.07 in 0.5 mi Calm Calm - N/A   Overcast
6:53 AM 43.0 °F - 39.0 °F 86% 30.08 in 3.0 mi Calm Calm - 0.00 in   Overcast
7:47 AM 42.8 °F - 39.2 °F 87% 30.04 in 1.5 mi Calm Calm - 0.01 in Rain Light Rain
7:53 AM 42.1 °F - 39.0 °F 89% 30.06 in 1.5 mi Calm Calm - 0.01 in Rain Light Rain
8:35 AM 42.8 °F - 39.2 °F 87% 30.05 in 0.2 mi Calm Calm - 0.01 in Rain Light Rain
8:53 AM 43.0 °F - 39.9 °F 89% 30.09 in 0.2 mi Calm Calm - 0.02 in Rain Light Rain
9:41 AM 44.6 °F - 39.2 °F 81% 30.06 in 1.2 mi Calm Calm - 0.03 in Rain Light Rain
9:53 AM 44.1 °F 40.1 °F 39.9 °F 85% 30.08 in 1.2 mi SSE 6.9 mph - 0.03 in   Overcast
10:15 AM 42.8 °F 39.3 °F 39.2 °F 87% 30.05 in 1.2 mi SE 5.8 mph - N/A   Overcast
10:47 AM 44.6 °F 41.4 °F 39.2 °F 81% 30.04 in 1.2 mi East 5.8 mph - 0.00 in   Overcast
10:53 AM 45.0 °F 43.5 °F 41.0 °F 86% 30.06 in 5.0 mi Variable 3.5 mph - 0.00 in Fog Patches of Fog
11:33 AM 44.6 °F 41.4 °F 42.8 °F 93% 30.03 in 0.2 mi West 5.8 mph - N/A   Overcast
11:38 AM 44.6 °F 40.7 °F 41.0 °F 87% 30.03 in 0.2 mi West 6.9 mph - N/A Fog Fog
11:53 AM 45.0 °F 42.6 °F 42.1 °F 90% 30.06 in 0.2 mi SW 4.6 mph - N/A   Overcast
12:09 PM 46.4 °F - 42.8 °F 87% 30.03 in 1.5 mi Calm Calm - N/A   Overcast
12:33 PM 46.4 °F 41.9 °F 42.8 °F 87% 30.02 in 7.0 mi SE 9.2 mph - 0.00 in Rain Light Rain
12:53 PM 46.0 °F 41.9 °F 42.1 °F 86% 30.05 in 7.0 mi SSE 8.1 mph - 0.00 in   Overcast
1:53 PM 46.9 °F - 42.1 °F 83% 30.03 in 7.0 mi SE 3.5 mph - 0.00 in Rain Light Rain
2:53 PM 46.9 °F - 42.1 °F 83% 30.03 in 9.0 mi SE 5.8 mph - 0.00 in Rain Light Rain
3:53 PM 46.9 °F - 43.0 °F 86% 30.03 in 5.0 mi South 6.9 mph - 0.03 in Rain Rain
4:23 PM 46.4 °F 44.3 °F 42.8 °F 87% 30.01 in 4.0 mi SSE 4.6 mph - 0.04 in Rain Rain
4:53 PM 46.0 °F 44.8 °F 43.0 °F 89% 30.03 in 5.0 mi SE 3.5 mph - 0.07 in Rain Light Rain
5:53 PM 46.0 °F - 43.0 °F 89% 30.03 in 4.0 mi Calm Calm - 0.02 in Rain Light Rain
6:07 PM 46.4 °F - 42.8 °F 87% 30.00 in 5.0 mi Calm Calm - 0.01 in Rain Light Rain
6:41 PM 46.4 °F 45.2 °F 42.8 °F 87% 30.01 in 2.5 mi SSE 3.5 mph - 0.04 in Rain Light Rain
6:53 PM 46.0 °F 43.9 °F 42.1 °F 86% 30.03 in 2.0 mi SE 4.6 mph - 0.06 in Rain Rain
6:55 PM 46.4 °F 45.2 °F 42.8 °F 87% 30.00 in 3.0 mi SE 3.5 mph - 0.00 in Rain Rain
7:00 PM 46.4 °F 44.3 °F 42.8 °F 87% 30.00 in 2.0 mi SE 4.6 mph - 0.00 in Rain Rain
7:04 PM 46.4 °F 44.3 °F 42.8 °F 87% 30.00 in 2.0 mi SE 4.6 mph - 0.00 in Rain Rain
7:48 PM 46.4 °F 45.2 °F 42.8 °F 87% 30.01 in 2.0 mi West 3.5 mph - 0.01 in   Overcast
7:53 PM 46.0 °F - 43.0 °F 89% 30.04 in 2.0 mi Calm Calm - 0.01 in   Overcast
8:31 PM 46.4 °F 44.3 °F 42.8 °F 87% 30.01 in 2.0 mi SSE 4.6 mph - 0.01 in   Overcast
8:53 PM 46.0 °F 43.9 °F 43.0 °F 89% 30.04 in 2.0 mi SSE 4.6 mph - 0.01 in   Overcast
9:53 PM 46.0 °F 43.1 °F 43.0 °F 89% 30.05 in 2.0 mi SSE 5.8 mph - N/A   Overcast
10:53 PM 46.0 °F 42.5 °F 43.0 °F 89% 30.05 in 2.0 mi SE 6.9 mph - 0.01 in Rain Light Rain
11:53 PM 46.0 °F 43.9 °F 43.0 °F 89% 30.05 in 2.0 mi SSE 4.6 mph - 0.00 in   Overcast